[[{"header":{"parameterUnit":"m.s-1","parameterCategory":1,"la1":30.2992,"la2":30.254,"lo1":-89.0895,"lo2":-89.0443,"dy":0.0025,"dx":0.0025,"nx":19,"ny":19,"refTime":"2026-04-23T03:00:00:Z","depth":0,"parameterNumber":2,"parameterNumberName":"U-component_of_WINDS"},"data":[0,0,0,-2.3122,-2.3124,-2.322,-2.3221,-2.3339,-2.334,0,0,0,0,0,0,0,0,0,0,0,-2.3088,-2.3088,-2.3121,-2.3124,-2.322,-2.3221,-2.3339,-2.334,0,0,0,0,0,0,0,0,0,0,0,-2.3087,-2.3088,-2.3089,-2.3124,-2.322,-2.3221,-2.3339,-2.3268,0,0,0,0,0,0,0,0,0,0,-2.3176,-2.3138,-2.3088,-2.3089,-2.3125,-2.322,-2.3221,-2.3265,-2.3273,-2.3293,0,-2.3307,0,-2.3325,-2.3348,-2.3348,0,0,0,-2.3128,-2.3132,-2.3163,-2.3089,-2.3125,-2.322,-2.3178,-2.3269,-2.3278,-2.3303,-2.3309,-2.3314,-2.3327,-2.3348,-2.3349,-2.3446,-2.3447,0,0,-2.3123,-2.3102,-2.3157,-2.3168,-2.315,-2.3175,-2.3181,-2.3275,-2.3281,-2.3309,-2.3316,-2.3329,-2.3349,-2.335,-2.3446,-2.3447,0,0,0,-2.3105,-2.3099,-2.3127,-2.3163,-2.318,-2.3177,-2.3184,-2.3276,-2.3287,-2.3318,-2.3331,-2.335,-2.3351,-2.3446,-2.3446,-2.3438,0,0,0,-2.3102,-2.3088,-2.3125,-2.3113,-2.3179,-2.3229,-2.3184,-2.3281,-2.3292,-2.333,-2.335,-2.3352,-2.3446,-2.3446,-2.3437,-2.3437,0,0,0,-2.3083,-2.3086,-2.3098,-2.3112,-2.3152,-2.3228,-2.3245,-2.3284,-2.33,-2.3348,-2.3353,-2.3446,-2.3446,-2.3437,-2.3436,-2.3457,0,0,0,-2.3058,-2.3089,-2.3097,-2.3137,-2.3151,-2.3222,-2.3244,-2.3298,-2.3338,-2.335,-2.3446,-2.3446,-2.3437,-2.3436,-2.3456,-2.3469,-2.3473,0,0,-2.3085,-2.3091,-2.3117,-2.3127,-2.319,-2.3209,-2.3272,-2.3329,-2.3353,-2.3415,-2.3417,-2.3438,-2.3436,-2.3457,-2.3502,-2.3504,0,0,0,-2.3118,-2.3136,-2.3158,-2.3194,-2.3238,-2.3277,-2.3326,-2.3348,-2.3401,-2.338,-2.3452,-2.3452,-2.3464,-2.3472,-2.3474,-2.3486,-2.3449,-2.3449,-2.3449,-2.3126,-2.3156,-2.32,-2.3242,-2.3278,-2.333,-2.3362,-2.3401,-2.342,-2.3437,-2.3455,-2.3478,-2.3486,-2.3488,-2.3501,-2.3465,-2.3465,-2.3465,-2.3465,-2.3169,-2.3199,-2.3225,-2.3277,-2.3309,-2.3354,-2.3407,-2.342,-2.3468,-2.3467,-2.3479,-2.3475,-2.349,-2.3503,-2.3464,-2.3465,-2.3465,-2.3465,-2.3465,-2.3177,-2.3196,-2.3222,-2.328,-2.3323,-2.3366,-2.3411,-2.3439,-2.3466,-2.3478,-2.3501,-2.3501,-2.3505,-2.3488,-2.3488,-2.3488,-2.3488,-2.3488,-2.3488,-2.3174,-2.3204,-2.3237,-2.3288,-2.3317,-2.3359,-2.3414,-2.3444,-2.3485,-2.3502,-2.3502,-2.352,-2.3486,-2.3476,-2.3489,-2.3489,-2.3489,-2.3489,-2.3489,-2.3205,-2.3203,-2.3254,-2.3283,-2.3347,-2.3388,-2.3425,-2.3484,-2.3513,-2.3535,-2.3552,-2.3522,-2.353,-2.3528,-2.352,-2.3545,-2.3545,-2.3545,-2.3545,-2.3211,-2.3218,-2.3278,-2.3323,-2.337,-2.3409,-2.3469,-2.3514,-2.356,-2.3581,-2.3582,-2.3575,-2.3572,-2.3582,-2.3579,-2.3572,-2.3609,-2.361,-2.361,-2.3231,-2.3245,-2.3289,-2.3333,-2.3386,-2.3432,-2.349,-2.3543,-2.3596,-2.3613,-2.3598,-2.3596,-2.3584,-2.3578,-2.3593,-2.3588,-2.3576,0,0]},{"header":{"parameterUnit":"m.s-1","parameterCategory":1,"la1":30.2992,"la2":30.254,"lo1":-89.0895,"lo2":-89.0443,"dy":0.0025,"dx":0.0025,"nx":19,"ny":19,"refTime":"2026-04-23T03:00:00:Z","depth":0,"parameterNumber":3,"parameterNumberName":"V-component_of_WINDS"},"data":[0,0,0,4.5772,4.5773,4.5796,4.5796,4.5837,4.5838,0,0,0,0,0,0,0,0,0,0,0,4.5772,4.5773,4.5772,4.5773,4.5796,4.5796,4.5837,4.5838,0,0,0,0,0,0,0,0,0,0,0,4.5772,4.5773,4.5773,4.5773,4.5796,4.5796,4.5837,4.5815,0,0,0,0,0,0,0,0,0,0,4.5791,4.5798,4.5772,4.5773,4.5773,4.5796,4.5796,4.5814,4.5817,4.5832,0,4.5847,0,4.5843,4.5841,4.5842,0,0,0,4.5768,4.5796,4.5796,4.5773,4.5773,4.5796,4.5784,4.5816,4.5819,4.5835,4.5847,4.5849,4.5844,4.5842,4.5842,4.5946,4.5947,0,0,4.5766,4.578,4.5794,4.5798,4.5796,4.5784,4.5785,4.5817,4.5831,4.5847,4.5849,4.5845,4.5842,4.5842,4.5945,4.5946,0,0,0,4.5766,4.5779,4.5778,4.5797,4.58,4.5784,4.5786,4.583,4.5828,4.585,4.5845,4.5842,4.5843,4.5945,4.5946,4.5996,0,0,0,4.5765,4.5779,4.5778,4.5787,4.58,4.5815,4.5798,4.5826,4.5829,4.5845,4.5842,4.5844,4.5944,4.5945,4.5993,4.6018,0,0,0,4.5768,4.5779,4.5785,4.5788,4.5798,4.5814,4.5815,4.5827,4.5827,4.5842,4.5844,4.5943,4.5945,4.599,4.6013,4.605,0,0,0,4.5775,4.5829,4.5786,4.5845,4.5798,4.5846,4.5814,4.5849,4.5867,4.5843,4.5944,4.5946,4.5989,4.601,4.6047,4.6083,4.61,0,0,4.5851,4.5839,4.5872,4.5835,4.5893,4.5841,4.5907,4.591,4.5899,4.5931,4.5933,4.5994,4.6013,4.6049,4.6186,4.6199,0,0,0,4.5901,4.5925,4.5938,4.5957,4.5961,4.5967,4.5959,4.596,4.5987,4.5918,4.6016,4.6027,4.6048,4.6065,4.6076,4.6093,4.5954,4.5954,4.5953,4.6028,4.6011,4.6065,4.6051,4.6069,4.6061,4.6074,4.6075,4.6051,4.6075,4.6084,4.617,4.619,4.6198,4.6216,4.6102,4.6102,4.6102,4.6102,4.6138,4.617,4.6138,4.6179,4.6161,4.6195,4.6189,4.6171,4.62,4.6161,4.6178,4.6138,4.6213,4.6228,4.6106,4.6105,4.6105,4.6105,4.6104,4.622,4.6232,4.6233,4.6259,4.628,4.6264,4.6293,4.6275,4.6258,4.6275,4.6283,4.6282,4.628,4.628,4.628,4.6281,4.6281,4.6281,4.6281,4.6305,4.6304,4.6332,4.6341,4.6351,4.6362,4.6354,4.6363,4.6368,4.6352,4.6352,4.6327,4.6224,4.6199,4.6286,4.6285,4.6285,4.6284,4.6284,4.6423,4.6394,4.6436,4.6446,4.6456,4.6479,4.6455,4.6475,4.648,4.6495,4.6466,4.6392,4.6379,4.6369,4.6348,4.6469,4.6469,4.6469,4.6469,4.6493,4.6484,4.6524,4.6541,4.6555,4.6538,4.6587,4.6581,4.6571,4.6573,4.6552,4.6523,4.6514,4.6505,4.6493,4.6474,4.6623,4.6624,4.6624,4.6565,4.6557,4.6602,4.6592,4.6598,4.6604,4.6649,4.667,4.6652,4.663,4.6574,4.6567,4.6519,4.6505,4.6482,4.6463,4.6426,0,0]}]]